Weather History for Three Rivers, MI

Change the Weather History Date:

Thursday, January 30, 2014

  Actual Average Record
Temperature  
Mean Temperature 23 °F -  
Max Temperature 33 °F 31 °F 54 °F (2013)
Min Temperature 14 °F 17 °F -12 °F (1951)
Degree Days  
Heating Degree Days 42    
Moisture  
Dew Point 11 °F    
Average Humidity 65    
Maximum Humidity 87    
Minimum Humidity 55    
Precipitation  
Precipitation 0.00 in - - ()
Sea Level Pressure  
Sea Level Pressure 29.91 in    
Wind  
Wind Speed 14 mph (SSW)    
Max Wind Speed 24 mph    
Max Gust Speed 34 mph    
Visibility 9 miles    
Events Snow    
Averages and records for this station are not official NWS values.
T = Trace of Precipitation, MM = Missing Value Source: NWS Daily Summary

Daily Weather History Graph

Daily Weather History Graph

Search for Another Location

Airport:

Trip Planner

Search our weather history database for the weather conditions in past years. The results will help you decide how hot, cold, wet, or windy it might be!

Date:

Astronomy

Jan. 30, 2014 Rise Set
Actual Time 7:57 AM EST 5:54 PM EST
Civil Twilight 7:27 AM EST 6:24 PM EST
Nautical Twilight 6:53 AM EST 6:58 PM EST
Astronomical Twilight 6:21 AM EST 7:30 PM EST
Moon 7:21 AM EST (1/30) 6:06 PM EST (1/30)
Length of Visible Light 10h 57m
Length of Day
9h 57m
Waning Crescent, 0% of the Moon is Illuminated
Jan 30
Waning Crescent
Jan 30
New
Feb 6
First Quarter
Feb 14
Full
Feb 22
Last Quarter

Hourly Weather History & Observations

Time (EST) Temp. Windchill Dew Point Humidity Pressure Visibility Wind Dir Wind Speed Gust Speed Precip Events Conditions
12:15 AM 15.4 °F 1.0 °F 3.2 °F 59% 30.08 in 10.0 mi SSW 13.8 mph 18.4 mph N/A   Clear
12:35 AM 15.6 °F 1.8 °F 3.2 °F 58% 30.08 in 10.0 mi SSW 12.7 mph - N/A   Clear
12:55 AM 15.4 °F 1.0 °F 3.2 °F 59% 30.07 in 10.0 mi SSW 13.8 mph - N/A   Clear
1:15 AM 15.4 °F 0.4 °F 3.0 °F 58% 30.07 in 10.0 mi SSW 15.0 mph - N/A   Clear
1:35 AM 14.9 °F 1.6 °F 2.7 °F 58% 30.07 in 10.0 mi SSW 11.5 mph - N/A   Clear
1:55 AM 14.9 °F 1.6 °F 2.5 °F 58% 30.07 in 10.0 mi SSW 11.5 mph - N/A   Clear
2:15 AM 14.7 °F 1.4 °F 2.3 °F 58% 30.06 in 10.0 mi SSW 11.5 mph - N/A   Clear
2:35 AM 14.9 °F 0.9 °F 2.5 °F 58% 30.05 in 10.0 mi SSW 12.7 mph - N/A   Clear
2:55 AM 15.3 °F 0.8 °F 2.5 °F 57% 30.06 in 10.0 mi SSW 13.8 mph - N/A   Clear
3:15 AM 15.3 °F 2.0 °F 2.3 °F 57% 30.06 in 10.0 mi South 11.5 mph - N/A   Clear
3:35 AM 15.4 °F 2.3 °F 2.5 °F 57% 30.06 in 10.0 mi SSW 11.5 mph - N/A   Clear
3:55 AM 14.9 °F 0.9 °F 2.3 °F 57% 30.05 in 10.0 mi South 12.7 mph - N/A   Clear
4:15 AM 14.9 °F 0.3 °F 2.7 °F 58% 30.04 in 10.0 mi South 13.8 mph - N/A   Clear
4:34 AM 14.7 °F 1.4 °F 2.3 °F 58% 30.04 in 10.0 mi South 11.5 mph - N/A   Clear
4:55 AM 14.5 °F 1.1 °F 2.5 °F 59% 30.03 in 10.0 mi South 11.5 mph - N/A   Clear
5:14 AM 15.1 °F 1.1 °F 3.0 °F 59% 30.03 in 10.0 mi SSW 12.7 mph - N/A   Clear
5:35 AM 15.4 °F 1.0 °F 3.2 °F 59% 30.02 in 10.0 mi South 13.8 mph - N/A   Clear
5:55 AM 14.7 °F 0.7 °F 2.7 °F 59% 30.02 in 10.0 mi South 12.7 mph - N/A   Clear
6:14 AM 14.4 °F -0.4 °F 2.7 °F 60% 30.02 in 10.0 mi South 13.8 mph - N/A   Clear
6:35 AM 14.4 °F -0.4 °F 3.0 °F 61% 30.01 in 10.0 mi South 13.8 mph - N/A   Clear
6:55 AM 14.9 °F 1.6 °F 3.2 °F 60% 30.01 in 10.0 mi South 11.5 mph - N/A   Clear
7:14 AM 15.3 °F 0.2 °F 3.2 °F 59% 30.00 in 10.0 mi South 15.0 mph - N/A   Clear
7:35 AM 15.8 °F 0.9 °F 3.4 °F 58% 29.99 in 10.0 mi South 15.0 mph - N/A   Clear
7:55 AM 16.2 °F 2.5 °F 3.6 °F 58% 30.00 in 10.0 mi South 12.7 mph - N/A   Clear
8:15 AM 16.0 °F 2.3 °F 3.7 °F 59% 30.00 in 10.0 mi South 12.7 mph - N/A   Clear
8:35 AM 16.3 °F 1.6 °F 3.7 °F 58% 30.00 in 10.0 mi South 15.0 mph - N/A   Clear
8:55 AM 17.1 °F 1.0 °F 4.1 °F 57% 29.97 in 10.0 mi South 18.4 mph 24.2 mph N/A   Clear
9:15 AM 17.4 °F 3.5 °F 5.0 °F 58% 29.97 in 10.0 mi South 13.8 mph 20.7 mph N/A   Clear
9:35 AM 18.3 °F 4.6 °F 5.9 °F 58% 29.97 in 10.0 mi SSW 13.8 mph - N/A   Clear
9:55 AM 19.2 °F 4.3 °F 6.8 °F 59% 29.97 in 10.0 mi South 17.3 mph 23.0 mph N/A   Clear
10:15 AM 20.3 °F 5.7 °F 7.2 °F 57% 29.96 in 10.0 mi South 17.3 mph 24.2 mph N/A   Clear
10:35 AM 20.7 °F 5.7 °F 8.1 °F 58% 29.95 in 10.0 mi South 18.4 mph 25.3 mph N/A   Clear
10:55 AM 20.8 °F 7.3 °F 8.4 °F 59% 29.95 in 10.0 mi South 15.0 mph 24.2 mph N/A   Clear
11:15 AM 21.2 °F 6.8 °F 8.2 °F 57% 29.93 in 10.0 mi South 17.3 mph 25.3 mph N/A   Scattered Clouds
11:35 AM 21.2 °F 6.4 °F 8.6 °F 58% 29.92 in 10.0 mi South 18.4 mph 24.2 mph N/A   Mostly Cloudy
11:55 AM 21.7 °F 6.7 °F 9.0 °F 58% 29.91 in 10.0 mi South 19.6 mph 25.3 mph N/A   Scattered Clouds
12:15 PM 21.9 °F 7.8 °F 9.3 °F 58% 29.89 in 10.0 mi South 17.3 mph 25.3 mph N/A   Scattered Clouds
12:34 PM 22.5 °F 8.5 °F 9.5 °F 58% 29.87 in 10.0 mi South 17.3 mph 23.0 mph N/A   Mostly Cloudy
12:55 PM 22.8 °F 9.4 °F 10.0 °F 58% 29.86 in 10.0 mi South 16.1 mph 24.2 mph N/A   Overcast
1:15 PM 23.4 °F 9.2 °F 10.2 °F 57% 29.83 in 10.0 mi South 18.4 mph 26.5 mph N/A   Overcast
1:35 PM 23.5 °F 9.0 °F 10.8 °F 58% 29.82 in 10.0 mi South 19.6 mph - N/A   Overcast
1:55 PM 24.3 °F 10.8 °F 10.8 °F 56% 29.79 in 7.0 mi South 17.3 mph 27.6 mph N/A   Mostly Cloudy
2:15 PM 24.6 °F 9.7 °F 10.9 °F 56% 29.75 in 7.0 mi South 21.9 mph 32.2 mph N/A   Clear
2:35 PM 24.8 °F 10.7 °F 11.1 °F 56% 29.74 in 7.0 mi South 19.6 mph 28.8 mph N/A   Clear
2:55 PM 25.0 °F 9.5 °F 11.5 °F 57% 29.74 in 7.0 mi South 24.2 mph 34.5 mph N/A   Clear
3:15 PM 25.2 °F 11.2 °F 11.7 °F 57% 29.72 in 7.0 mi South 19.6 mph 27.6 mph N/A   Scattered Clouds
3:35 PM 25.3 °F 12.6 °F 12.2 °F 58% 29.75 in 10.0 mi SSW 16.1 mph 28.8 mph N/A   Mostly Cloudy
3:55 PM 26.1 °F 13.6 °F 11.8 °F 55% 29.76 in 10.0 mi SSW 16.1 mph 24.2 mph N/A   Overcast
4:15 PM 25.7 °F 12.3 °F 12.2 °F 57% 29.75 in 10.0 mi South 18.4 mph 24.2 mph N/A   Overcast
4:35 PM 26.1 °F 13.1 °F 12.6 °F 57% 29.75 in 10.0 mi SSW 17.3 mph 21.9 mph N/A   Overcast
4:55 PM 26.1 °F 12.7 °F 13.1 °F 58% 29.78 in 10.0 mi SSW 18.4 mph 26.5 mph N/A   Overcast
5:15 PM 25.0 °F 12.6 °F 16.2 °F 69% 29.79 in 0.8 mi SSW 15.0 mph 23.0 mph N/A Snow Light Snow
5:35 PM 23.9 °F 12.3 °F 19.4 °F 83% 29.79 in 0.5 mi SSW 12.7 mph - N/A Snow Snow
5:55 PM 23.9 °F 11.2 °F 20.3 °F 86% 29.78 in 1.0 mi SSW 15.0 mph - N/A Snow Light Snow
6:15 PM 24.4 °F 13.5 °F 21.0 °F 87% 29.79 in 4.0 mi SSW 11.5 mph - N/A Snow Light Snow
6:35 PM 25.5 °F 13.8 °F 22.1 °F 87% 29.79 in 7.0 mi SSW 13.8 mph - N/A   Overcast
6:55 PM 26.4 °F 14.5 °F 22.5 °F 85% 29.79 in 7.0 mi SSW 15.0 mph - N/A   Overcast
7:15 PM 27.0 °F 15.6 °F 22.8 °F 84% 29.79 in 10.0 mi SSW 13.8 mph - N/A   Overcast
7:34 PM 27.5 °F 15.9 °F 23.0 °F 83% 29.80 in 10.0 mi SSW 15.0 mph 20.7 mph N/A   Overcast
7:55 PM 28.0 °F 17.0 °F 23.0 °F 81% 29.80 in 10.0 mi SSW 13.8 mph - N/A   Overcast
8:15 PM 28.2 °F 18.3 °F 23.5 °F 83% 29.80 in 10.0 mi SW 11.5 mph - N/A   Overcast
8:34 PM 28.4 °F 18.5 °F 23.4 °F 81% 29.80 in 10.0 mi SW 11.5 mph - N/A   Overcast
8:55 PM 28.4 °F 18.0 °F 23.9 °F 83% 29.81 in 5.0 mi SW 12.7 mph 17.3 mph N/A   Overcast
9:15 PM 29.7 °F 18.6 °F 24.4 °F 81% 29.81 in 10.0 mi SW 15.0 mph - N/A   Overcast
9:34 PM 30.6 °F 20.7 °F 25.0 °F 80% 29.81 in 10.0 mi SW 12.7 mph 18.4 mph N/A   Overcast
9:55 PM 31.1 °F 21.9 °F 25.3 °F 79% 29.81 in 7.0 mi SW 11.5 mph 17.3 mph N/A   Overcast
10:15 PM 31.1 °F 23.7 °F 25.7 °F 80% 29.82 in 10.0 mi SW 8.1 mph 17.3 mph N/A   Overcast
10:34 PM 31.8 °F 23.9 °F 25.5 °F 78% 29.82 in 10.0 mi SW 9.2 mph - N/A   Overcast
10:55 PM 32.0 °F 23.6 °F 25.5 °F 77% 29.82 in 10.0 mi SW 10.4 mph - N/A   Overcast
11:14 PM 32.0 °F 24.8 °F 25.5 °F 77% 29.82 in 10.0 mi WSW 8.1 mph - N/A   Overcast
11:35 PM 32.4 °F 26.0 °F 25.5 °F 76% 29.82 in 10.0 mi SW 6.9 mph 17.3 mph N/A   Overcast
11:55 PM 32.9 °F 26.7 °F 25.5 °F 74% 29.83 in 10.0 mi WSW 6.9 mph - N/A   Overcast